User: anonymous   Login
Location: Unspecified
(0.0000°N, 0.0000°E)
Time: 03:50:00
(UTC+00:00)
Language:

AO-73 - Orbit

View from above orbital plane
View from above orbital plane
View from above satellite
View from above satellite

Ground track
Ground track

The orbit data is extracted from the following two-line orbital elements,

1 39444U 13066AE  19082.93953550 +.00000196 +00000-0 +30640-4 0  9992
2 39444 097.5671 103.1500 0056903 313.7420 045.9090 14.81881835286497
Epoch (UTC): 23 March 2019 22:32:55
Eccentricity: 0.0056903
inclination: 97.5671°
perigee height: 583 km
apogee height: 663 km
right ascension of ascending node: 103.1500°
argument of perigee: 313.7420°
revolutions per day: 14.81881835
mean anomaly at epoch: 45.9090°
orbit number at epoch: 28649

The dashed part of the orbit path shows where the satellite is in the earth's shadow,  

DLR